EW4238 Weather Reports


time (UTC)temp
F
wind
direction
speed
knots
gust
knots
rain 1hr
in
rain 24hr
in
rain mn
in
humidity
%
barometer
mb
20260504204538 57 336 8.7 20.0 0.00 0.00 0.00 30 1013.0
20260504203037 58 15 7.0 10.4 0.00 0.00 0.00 28 1012.8
20260504201536 60 22 6.1 13.9 0.00 0.00 0.00 27 1012.7
20260504200034 60 340 7.8 20.0 0.00 0.00 0.00 28 1012.6
20260504194533 61 8 7.8 17.4 0.00 0.00 0.00 28 1012.4
20260504193032 62 345 7.0 14.8 0.00 0.00 0.00 28 1012.4
20260504191528 57 332 7.0 12.2 0.00 0.00 0.00 31 1012.5
20260504190025 56 276 8.7 19.1 0.00 0.00 0.00 30 1012.4
20260504184531 56 347 6.1 18.2 0.00 0.00 0.00 33 1012.4
20260504183020 56 322 7.0 14.8 0.00 0.00 0.00 33 1012.4
20260504181519 57 349 7.8 17.4 0.00 0.00 0.00 32 1012.4
20260504180019 59 326 7.0 13.0 0.00 0.00 0.00 31 1012.5
20260504174519 57 341 7.0 14.8 0.00 0.00 0.00 32 1012.5
20260504173019 58 310 6.1 18.2 0.00 0.00 0.00 32 1012.5
20260504171521 58 324 7.0 11.3 0.00 0.00 0.00 32 1012.5
20260504130105 44 315 5.2 8.7 0.00 0.00 0.00 67 1012.7
20260504081537 47 33 1.7 7.8 0.00 0.00 0.00 57 1012.3
20260504044557 54 101 2.6 8.7 0.00 0.00 0.00 37 1006.7
20260504043100 57 328 2.6 8.7 0.00 0.00 0.00 38 1006.7
20260504041552 58 14 2.6 9.6 0.00 0.00 0.00 36 1006.2
20260504040120 58 23 2.6 12.2 0.00 0.00 0.00 36 1005.8
20260504034548 58 69 2.6 9.6 0.00 0.00 0.00 35 1005.6
20260504033048 59 48 1.7 7.0 0.00 0.00 0.00 35 1005.4
20260504031553 60 54 1.7 7.0 0.00 0.00 0.00 34 1005.1
20260504030043 61 95 1.7 7.8 0.00 0.00 0.00 34 1004.7
20260504024536 62 59 0.9 2.6 0.00 0.00 0.00 32 1004.5
20260504023037 65 68 0.9 3.5 0.00 0.00 0.00 28 1004.4
20260504021528 66 43 0.0 1.7 0.00 0.00 0.00 23 1004.4
20260504020026 67 358 0.9 3.5 0.00 0.00 0.00 22 1004.3
20260504014527 69 27 0.9 4.3 0.00 0.00 0.00 21 1004.5
20260504013020 71 23 0.9 5.2 0.00 0.00 0.00 20 1004.5
20260504011517 73 330 1.7 6.1 0.00 0.00 0.00 19 1004.5
20260504010016 74 351 1.7 7.8 0.00 0.00 0.00 19 1004.6
20260504004520 76 89 2.6 6.1 0.00 0.00 0.00 18 1004.7
20260504003011 76 353 3.5 8.7 0.00 0.00 0.00 18 1005.0
20260504001510 77 2 2.6 13.0 0.00 0.00 0.00 18 1005.1
20260504000008 78 27 3.5 10.4 0.00 0.00 0.00 17 1005.3
20260503234508 79 324 7.0 13.9 0.00 0.00 0.00 17 1005.3
20260503233014 79 356 6.1 12.2 0.00 0.00 0.00 17 1005.4
20260503231504 79 341 1.7 12.2 0.00 0.00 0.00 17 1005.6
20260503230004 79 352 6.1 14.8 0.00 0.00 0.00 16 1005.6
20260503224600 78 337 3.5 15.6 0.00 0.00 0.00 18 1005.8
20260503223102 76 310 9.6 19.1 0.00 0.00 0.00 17 1006.0
20260503221601 77 322 5.2 17.4 0.00 0.00 0.00 16 1006.2
20260503214555 76 322 6.1 18.2 0.00 0.00 0.00 17 1006.6
20260503213054 75 345 4.3 12.2 0.00 0.00 0.00 19 1006.7
20260503211552 75 311 1.7 19.1 0.00 0.00 0.00 17 1006.9